Location: G�rlitz
(51.1670°N, 15.0000°E)
Time: 15:32:06
(UTC+01:00)

Envisat - Pass Details

Date: 24 February 2026
Orbit: 761 x 763 km, 98.4° (Epoch: 5 March)

Event Time Altitude Azimuth Distance (km) Brightness Sun altitude
Rises 02:28:27 0° 17° (NNE) 3,237 6.9 -40.0°
Reaches altitude 10° 02:30:48 10° 22° (NNE) 2,306 6.1 -39.7°
Enters shadow 02:32:10 18° 27° (NNE) 1,794 5.4 -39.6°
